Showing default

ICEYE-X4, 44390

Orbit data source: Space-Track

ICEYE-X4, 44390 is a payload satellite owned by ICEYE (FI) in SSO that was launched on Fri, 05 Jul 2019 UTC via a SOYUZ-2-1B launch vehicle from the Vostochny Cosmodrome (VOSTO). Payload-class satellites include a variety of spacecraft equipped with specific instruments for various scientific and technological missions. These include communications satellites like Starlink; space stations such as the ISS; scientific satellites like the Hubble; Earth observation satellites from companies like Planet Labs, Umbra, and HawkEye 360; GPS; miniature CubeSats for education and research; and military/defense satellites.

Loading next visibility...
Identifier
44390, 2019-038D
Orbit
SSO
Country
Flag of FIFI / FIN
Related business
Manufacturer
ICEYE
Mission
Operational Commercial Radar Imaging
Bus & Motor
ICEYE, Unknown motor
Mass
80 kg wet, 80 kg dry
Launch date (UTC)
2019-07-05 (7 years ago)
Launch vehicle
SOYUZ-2-1B
Launch site
Vostochny Cosmodrome (VOSTO)
Object type
Payload
Rocket body
Debris
Shape & HBR
Box + 1 Pan, 2.4 m
Radar Cross Section
1.837 m², Medium (>0.1 m² and < 1m²)

Expand to show TLE details & history
Last TLE update: 14 hours ago

TLE from 14 hours ago
0 ICEYE-X4
1 44390U 19038D   26235.62705280  .00010289  00000-0  34912-3 0  9991
2 44390  97.8731 272.5607 0014405  71.6411 288.6394 15.30633665392114
Epoch: 2026-08-23T15:02Z
TLE epoch observation values (Epoch: 2026-08-23T15:02:57.361Z)
Latitude
-0.00004°
Longitude
74.9013°
Altitude
473.869 km
Speed
7.631 km/s
True Right ascension
18h 10m 14s
True Declination
0° 00' 00"
Sunlit
Object was in full shadow at epoch
Visualization orbit readout
Latitude
Unknown
Longitude
Unknown
Altitude
Unknown
Speed
Unknown
Apparent Right ascension
Unknown
Apparent Declination
Unknown
Sunlit
N/A
Visualization observer readout
Local Sidereal Time
20:03:51
Azimuth
Unknown
Elevation
Unknown
Doppler factor
Unknown
Orbital elements
Apogee altitude
480.759 km
Perigee altitude
461.027 km
Semi-major axis
6,849.03 km
Eccentricity
0.00144
Inclination
97.8731°
RAAN
272.5607°
Arg. of periapsis
71.6411°
True anomaly
288.4829°
Mean anomaly
288.6394°
Eccentric anomaly
288.56116°
Mean motion
3.82913 °/min
Orbital period
94.02 mins
BSTAR
0.00034912
Loading maneuver chart data...
Computing Atmospheric mass density...

Documentation

Showing up to 5 results
|